FDX125 ZUCK-ZSNJ

Flight info

Callsign FDX125
Flight time 1h 31m
Altitude 37100
Route OLNER1Z OLNER B213 WHA R343 HFE W51 LEGIV W164 OREVO
Aircraft MD11/H-SDE1E2E3FGHIJ2J3J4J5M1RWXY/LB1D1

Departure

Time 2026-04-19 04:56
Airport Chongqing Jiangbei International Airport (ZUCK)

Arrival

Time 2026-04-19 06:27
Airport Nanjing Lukou International Airport (ZSNJ)
Time Latitude Longitude Altitude Speed Heading
2026-04-19 04:30 29.71546 106.65678 1353 ft 0 kts 296°
2026-04-19 04:45 29.71545 106.65678 1349 ft 1 kts 296°
2026-04-19 04:45 29.71539 106.65694 1349 ft 3 kts 294°
2026-04-19 04:45 29.71531 106.65715 1352 ft 3 kts 294°
2026-04-19 04:45 29.71524 106.65729 1352 ft 3 kts 289°
2026-04-19 04:46 29.71520 106.65746 1351 ft 3 kts 255°
2026-04-19 04:46 29.71524 106.65759 1351 ft 3 kts 213°
2026-04-19 04:46 29.71541 106.65768 1351 ft 3 kts 198°
2026-04-19 04:46 29.71553 106.65773 1352 ft 1 kts 197°
2026-04-19 04:52 29.71530 106.65765 1352 ft 8 kts 197°
2026-04-19 04:52 29.71450 106.65732 1351 ft 16 kts 205°
2026-04-19 04:52 29.71390 106.65723 1348 ft 5 kts 157°
2026-04-19 04:53 29.71377 106.65762 1350 ft 8 kts 98°
2026-04-19 04:53 29.71394 106.65812 1351 ft 5 kts 43°
2026-04-19 04:53 29.71427 106.65831 1350 ft 6 kts 17°
2026-04-19 04:53 29.71490 106.65860 1350 ft 10 kts 32°
2026-04-19 04:54 29.71505 106.65898 1351 ft 5 kts 97°
2026-04-19 04:54 29.71492 106.65967 1345 ft 13 kts 103°
2026-04-19 04:54 29.71477 106.66033 1346 ft 3 kts 105°
2026-04-19 04:54 29.71464 106.66088 1348 ft 12 kts 105°
2026-04-19 04:55 29.71468 106.66139 1347 ft 7 kts 64°
2026-04-19 04:55 29.71493 106.66164 1346 ft 3 kts 16°
2026-04-19 04:55 29.71546 106.66180 1346 ft 12 kts 17°
2026-04-19 04:55 29.71665 106.66223 1346 ft 36 kts 17°
2026-04-19 04:56 29.72221 106.66415 1337 ft 127 kts 16°
2026-04-19 04:56 29.73296 106.66802 1430 ft 185 kts 18°
2026-04-19 04:56 29.74562 106.67226 2201 ft 190 kts 19°
2026-04-19 04:56 29.75864 106.67666 3083 ft 201 kts 19°
2026-04-19 04:57 29.77211 106.68119 3986 ft 201 kts 18°
2026-04-19 04:57 29.78550 106.68636 4638 ft 214 kts 28°
2026-04-19 04:57 29.79899 106.69591 4887 ft 236 kts 37°
2026-04-19 04:57 29.81162 106.70625 5824 ft 217 kts 38°
2026-04-19 04:58 29.82471 106.71713 6017 ft 252 kts 37°
2026-04-19 04:58 29.83966 106.72952 6160 ft 275 kts 37°
2026-04-19 04:58 29.85571 106.74273 6316 ft 291 kts 37°
2026-04-19 04:58 29.87120 106.75775 6769 ft 293 kts 49°
2026-04-19 04:59 29.88417 106.77585 7551 ft 293 kts 54°
2026-04-19 04:59 29.89638 106.79478 8418 ft 296 kts 56°
2026-04-19 04:59 29.90860 106.81419 9245 ft 303 kts 57°
2026-04-19 04:59 29.92102 106.83401 10027 ft 307 kts 57°
2026-04-19 05:00 29.93404 106.85482 10273 ft 335 kts 57°
2026-04-19 05:00 29.94636 106.87854 10412 ft 357 kts 71°
2026-04-19 05:00 29.95131 106.90701 10698 ft 368 kts 94°
2026-04-19 05:00 29.94853 106.93637 11368 ft 371 kts 103°
2026-04-19 05:01 29.94389 106.96583 12153 ft 376 kts 103°
2026-04-19 05:01 29.94005 106.99582 12972 ft 382 kts 100°
2026-04-19 05:01 29.93746 107.02659 13689 ft 389 kts 97°
2026-04-19 05:01 29.93595 107.05801 14370 ft 395 kts 95°
2026-04-19 05:02 29.93517 107.08984 15064 ft 400 kts 94°
2026-04-19 05:02 29.93480 107.12210 15728 ft 405 kts 93°
2026-04-19 05:02 29.93468 107.14362 16180 ft 407 kts 93°
2026-04-19 05:02 29.93458 107.17644 16873 ft 412 kts 93°
2026-04-19 05:03 29.93451 107.20963 17545 ft 416 kts 93°
2026-04-19 05:03 29.93442 107.25460 18399 ft 422 kts 93°
2026-04-19 05:03 29.93437 107.27706 18800 ft 424 kts 93°
2026-04-19 05:03 29.93423 107.32284 19590 ft 429 kts 93°
2026-04-19 05:04 29.93416 107.34566 19983 ft 431 kts 93°
2026-04-19 05:04 29.93403 107.38036 20569 ft 435 kts 93°
2026-04-19 05:04 29.93389 107.41537 21136 ft 439 kts 93°
2026-04-19 05:04 29.93373 107.45071 21708 ft 442 kts 93°
2026-04-19 05:05 29.93356 107.48633 22305 ft 446 kts 93°
2026-04-19 05:05 29.93339 107.52228 22848 ft 450 kts 93°
2026-04-19 05:05 29.93320 107.55843 23399 ft 454 kts 93°
2026-04-19 05:05 29.93300 107.59495 23865 ft 457 kts 93°
2026-04-19 05:06 29.93279 107.63175 24324 ft 461 kts 93°
2026-04-19 05:06 29.93256 107.66887 24755 ft 465 kts 93°
2026-04-19 05:06 29.93233 107.70633 25213 ft 469 kts 93°
2026-04-19 05:06 29.93208 107.74404 25634 ft 473 kts 93°
2026-04-19 05:07 29.93182 107.78207 26046 ft 477 kts 92°
2026-04-19 05:07 29.93308 107.82044 26441 ft 482 kts 85°
2026-04-19 05:07 29.93910 107.85857 26873 ft 487 kts 78°
2026-04-19 05:07 29.94802 107.89642 27308 ft 491 kts 74°
2026-04-19 05:08 29.95800 107.93362 27703 ft 494 kts 73°
2026-04-19 05:08 29.97886 108.01023 28539 ft 500 kts 73°
2026-04-19 05:08 29.98896 108.04877 28957 ft 504 kts 74°
2026-04-19 05:09 29.99878 108.08716 29329 ft 507 kts 74°
2026-04-19 05:09 30.00864 108.12634 29726 ft 510 kts 74°
2026-04-19 05:09 30.01849 108.16579 30105 ft 513 kts 75°
2026-04-19 05:09 30.02836 108.20545 30508 ft 514 kts 74°
2026-04-19 05:10 30.03822 108.24511 31012 ft 514 kts 74°
2026-04-19 05:10 30.04806 108.28472 31487 ft 513 kts 74°
2026-04-19 05:10 30.05790 108.32429 31977 ft 512 kts 74°
2026-04-19 05:10 30.06767 108.36377 32439 ft 512 kts 74°
2026-04-19 05:11 30.07743 108.40320 32886 ft 511 kts 74°
2026-04-19 05:11 30.08722 108.44270 33325 ft 511 kts 74°
2026-04-19 05:11 30.09700 108.48215 33696 ft 511 kts 74°
2026-04-19 05:11 30.10680 108.52164 34082 ft 511 kts 74°
2026-04-19 05:12 30.11678 108.56098 34461 ft 510 kts 73°
2026-04-19 05:12 30.12750 108.60002 34813 ft 509 kts 71°
2026-04-19 05:12 30.13869 108.63874 35187 ft 508 kts 71°
2026-04-19 05:12 30.15009 108.67737 35525 ft 507 kts 70°
2026-04-19 05:13 30.16151 108.71591 35888 ft 506 kts 70°
2026-04-19 05:13 30.17284 108.75427 36263 ft 504 kts 70°
2026-04-19 05:13 30.18405 108.79251 36644 ft 501 kts 70°
2026-04-19 05:13 30.19503 108.83015 36921 ft 501 kts 70°
2026-04-19 05:14 30.20634 108.86905 36971 ft 506 kts 70°
2026-04-19 05:14 30.22815 108.94657 37012 ft 513 kts 72°
2026-04-19 05:15 30.24783 109.02549 37018 ft 509 kts 73°
2026-04-19 05:15 30.26692 109.10446 37013 ft 510 kts 73°
2026-04-19 05:16 30.28617 109.18346 37013 ft 512 kts 73°
2026-04-19 05:16 30.30553 109.26265 37011 ft 512 kts 73°
2026-04-19 05:17 30.32481 109.34188 37012 ft 510 kts 73°
2026-04-19 05:17 30.34412 109.42114 37010 ft 513 kts 73°
2026-04-19 05:18 30.36344 109.50080 37012 ft 514 kts 73°
2026-04-19 05:18 30.38257 109.58055 37007 ft 513 kts 73°
2026-04-19 05:19 30.39819 109.66124 37003 ft 514 kts 79°
2026-04-19 05:19 30.40992 109.74295 37009 ft 515 kts 80°
2026-04-19 05:20 30.42138 109.82484 37007 ft 514 kts 80°
2026-04-19 05:20 30.43318 109.90653 37009 ft 514 kts 79°
2026-04-19 05:21 30.44511 109.98825 37008 ft 514 kts 79°
2026-04-19 05:21 30.45700 110.06993 37007 ft 515 kts 79°
2026-04-19 05:22 30.46877 110.15122 37021 ft 514 kts 79°
2026-04-19 05:22 30.48055 110.23305 37004 ft 515 kts 79°
2026-04-19 05:23 30.49230 110.31501 36999 ft 516 kts 79°
2026-04-19 05:23 30.50398 110.39696 37002 ft 515 kts 79°
2026-04-19 05:24 30.51564 110.47898 37000 ft 516 kts 79°
2026-04-19 05:24 30.52725 110.56113 37006 ft 516 kts 79°
2026-04-19 05:25 30.53869 110.64343 37000 ft 516 kts 79°
2026-04-19 05:25 30.54999 110.72570 36997 ft 517 kts 79°
2026-04-19 05:26 30.56140 110.80809 37003 ft 518 kts 79°
2026-04-19 05:26 30.57283 110.89056 36979 ft 518 kts 79°
2026-04-19 05:27 30.58426 110.97324 36983 ft 519 kts 80°
2026-04-19 05:27 30.59558 111.05578 36984 ft 519 kts 79°
2026-04-19 05:28 30.60695 111.13881 36985 ft 522 kts 79°
2026-04-19 05:28 30.61830 111.22220 36983 ft 524 kts 79°
2026-04-19 05:29 30.62948 111.30579 36980 ft 523 kts 79°
2026-04-19 05:29 30.64051 111.38932 36980 ft 523 kts 79°
2026-04-19 05:30 30.65134 111.47295 36971 ft 524 kts 81°
2026-04-19 05:30 30.65761 111.55733 36976 ft 525 kts 85°
2026-04-19 05:31 30.66142 111.64199 36976 ft 525 kts 85°
2026-04-19 05:31 30.66528 111.72674 36977 ft 525 kts 85°
2026-04-19 05:32 30.66947 111.81136 36971 ft 525 kts 84°
2026-04-19 05:32 30.67378 111.89602 36973 ft 525 kts 84°
2026-04-19 05:33 30.67830 111.98070 36975 ft 525 kts 84°
2026-04-19 05:33 30.68393 112.06530 36981 ft 526 kts 83°
2026-04-19 05:34 30.68989 112.15009 36983 ft 527 kts 83°
2026-04-19 05:34 30.69574 112.23500 36975 ft 527 kts 83°
2026-04-19 05:35 30.70148 112.31989 36978 ft 527 kts 83°
2026-04-19 05:35 30.70709 112.40419 36972 ft 527 kts 83°
2026-04-19 05:36 30.71270 112.48915 36975 ft 527 kts 83°
2026-04-19 05:36 30.71826 112.57414 36989 ft 527 kts 83°
2026-04-19 05:37 30.72376 112.65914 36990 ft 527 kts 83°
2026-04-19 05:37 30.72920 112.74411 36980 ft 527 kts 83°
2026-04-19 05:38 30.73459 112.82915 36981 ft 527 kts 83°
2026-04-19 05:38 30.73991 112.91410 36991 ft 527 kts 83°
2026-04-19 05:39 30.74495 112.99918 36984 ft 528 kts 83°
2026-04-19 05:39 30.75002 113.08422 37014 ft 527 kts 83°
2026-04-19 05:40 30.75446 113.16945 36991 ft 528 kts 84°
2026-04-19 05:40 30.75687 113.25482 36992 ft 529 kts 85°
2026-04-19 05:41 30.75883 113.34031 36988 ft 529 kts 85°
2026-04-19 05:41 30.76088 113.42579 36989 ft 529 kts 85°
2026-04-19 05:42 30.76299 113.51117 36997 ft 528 kts 85°
2026-04-19 05:42 30.76507 113.59653 36995 ft 528 kts 85°
2026-04-19 05:43 30.76709 113.68186 36993 ft 528 kts 85°
2026-04-19 05:43 30.76904 113.76730 37002 ft 528 kts 85°
2026-04-19 05:44 30.77091 113.85196 36999 ft 527 kts 85°
2026-04-19 05:44 30.77275 113.93710 37005 ft 527 kts 85°
2026-04-19 05:45 30.77468 114.02222 37009 ft 527 kts 84°
2026-04-19 05:45 30.77769 114.10726 37013 ft 525 kts 83°
2026-04-19 05:46 30.78191 114.19185 37016 ft 520 kts 78°
2026-04-19 05:46 30.80050 114.27184 37014 ft 508 kts 63°
2026-04-19 05:47 30.82726 114.34766 37010 ft 507 kts 62°
2026-04-19 05:47 30.85367 114.42395 37011 ft 508 kts 63°
2026-04-19 05:48 30.87885 114.50069 37009 ft 507 kts 64°
2026-04-19 05:48 30.90372 114.57752 37011 ft 507 kts 64°
2026-04-19 05:49 30.92861 114.65442 37013 ft 508 kts 64°
2026-04-19 05:49 30.95350 114.73134 37024 ft 508 kts 64°
2026-04-19 05:50 30.97835 114.80826 37018 ft 507 kts 64°
2026-04-19 05:50 30.99894 114.87214 37016 ft 507 kts 64°
2026-04-19 05:51 31.02782 114.96215 37015 ft 507 kts 64°
2026-04-19 05:51 31.04825 115.02621 37026 ft 507 kts 64°
2026-04-19 05:52 31.07682 115.11574 37030 ft 506 kts 64°
2026-04-19 05:52 31.09738 115.18020 37032 ft 506 kts 64°
2026-04-19 05:53 31.12180 115.25724 37027 ft 505 kts 64°
2026-04-19 05:53 31.14627 115.33381 37035 ft 504 kts 64°
2026-04-19 05:54 31.17109 115.41035 37029 ft 503 kts 64°
2026-04-19 05:54 31.19590 115.48686 37034 ft 504 kts 64°
2026-04-19 05:55 31.22063 115.56338 37042 ft 503 kts 64°
2026-04-19 05:55 31.24511 115.63938 37040 ft 504 kts 64°
2026-04-19 05:56 31.26972 115.71598 37043 ft 502 kts 64°
2026-04-19 05:56 31.29415 115.79235 37044 ft 502 kts 64°
2026-04-19 05:57 31.31865 115.86939 37044 ft 502 kts 64°
2026-04-19 05:57 31.34319 115.94529 37041 ft 502 kts 63°
2026-04-19 05:58 31.36811 116.02158 37042 ft 502 kts 63°
2026-04-19 05:58 31.39296 116.09777 37028 ft 500 kts 64°
2026-04-19 05:59 31.41774 116.17396 37032 ft 501 kts 63°
2026-04-19 05:59 31.44240 116.25005 37027 ft 499 kts 63°
2026-04-19 06:00 31.46696 116.32602 37025 ft 499 kts 63°
2026-04-19 06:00 31.49151 116.40208 37028 ft 499 kts 64°
2026-04-19 06:01 31.51598 116.47812 37025 ft 499 kts 64°
2026-04-19 06:01 31.54042 116.55421 37025 ft 499 kts 64°
2026-04-19 06:02 31.56455 116.62957 37028 ft 497 kts 64°
2026-04-19 06:02 31.58871 116.70523 37025 ft 495 kts 64°
2026-04-19 06:03 31.61283 116.78085 37023 ft 495 kts 64°
2026-04-19 06:03 31.63672 116.85669 37023 ft 496 kts 64°
2026-04-19 06:04 31.66061 116.93248 37013 ft 493 kts 64°
2026-04-19 06:04 31.67218 116.96925 36755 ft 479 kts 64°
2026-04-19 06:04 31.68360 117.00567 36485 ft 473 kts 64°
2026-04-19 06:04 31.69481 117.04176 36112 ft 469 kts 64°
2026-04-19 06:05 31.70594 117.07775 35526 ft 468 kts 63°
2026-04-19 06:05 31.71694 117.11348 34940 ft 464 kts 63°
2026-04-19 06:05 31.72791 117.14915 34382 ft 463 kts 63°
2026-04-19 06:05 31.73881 117.18462 33864 ft 461 kts 63°
2026-04-19 06:06 31.74968 117.21996 33279 ft 460 kts 63°
2026-04-19 06:06 31.76053 117.25529 32751 ft 460 kts 64°
2026-04-19 06:06 31.77100 117.29088 32213 ft 463 kts 69°
2026-04-19 06:06 31.77724 117.32832 31667 ft 472 kts 78°
2026-04-19 06:07 31.77956 117.36697 31093 ft 476 kts 83°
2026-04-19 06:07 31.78008 117.40586 30521 ft 476 kts 85°
2026-04-19 06:07 31.78009 117.44476 29947 ft 476 kts 86°
2026-04-19 06:07 31.78018 117.48366 29301 ft 475 kts 85°
2026-04-19 06:08 31.78052 117.52247 28704 ft 477 kts 85°
2026-04-19 06:08 31.78112 117.56160 28122 ft 480 kts 85°
2026-04-19 06:08 31.78187 117.60084 27540 ft 482 kts 84°
2026-04-19 06:08 31.78269 117.64033 26938 ft 484 kts 85°
2026-04-19 06:09 31.78353 117.67977 26319 ft 481 kts 85°
2026-04-19 06:09 31.78434 117.71891 25710 ft 478 kts 85°
2026-04-19 06:09 31.78513 117.75786 25110 ft 475 kts 85°
2026-04-19 06:09 31.78591 117.79659 24512 ft 473 kts 85°
2026-04-19 06:10 31.78666 117.83507 23914 ft 470 kts 86°
2026-04-19 06:10 31.78739 117.87333 23291 ft 467 kts 86°
2026-04-19 06:10 31.78811 117.91132 22623 ft 463 kts 86°
2026-04-19 06:10 31.78880 117.94898 22015 ft 458 kts 86°
2026-04-19 06:11 31.78948 117.98617 21430 ft 453 kts 86°
2026-04-19 06:11 31.79014 118.02300 20864 ft 448 kts 86°
2026-04-19 06:11 31.79078 118.05895 20294 ft 444 kts 86°
2026-04-19 06:12 31.79198 118.13053 19150 ft 433 kts 85°
2026-04-19 06:12 31.79260 118.16574 18576 ft 428 kts 85°
2026-04-19 06:12 31.79325 118.20052 17987 ft 424 kts 85°
2026-04-19 06:12 31.79391 118.23501 17375 ft 420 kts 85°
2026-04-19 06:13 31.79456 118.26914 16805 ft 415 kts 86°
2026-04-19 06:13 31.79578 118.30286 16245 ft 411 kts 83°
2026-04-19 06:13 31.79818 118.33619 15723 ft 407 kts 81°
2026-04-19 06:13 31.80112 118.36911 15203 ft 403 kts 81°
2026-04-19 06:14 31.80421 118.40171 14686 ft 400 kts 81°
2026-04-19 06:14 31.80729 118.43409 14169 ft 397 kts 81°
2026-04-19 06:14 31.81031 118.46620 13644 ft 394 kts 81°
2026-04-19 06:14 31.81326 118.49802 13080 ft 390 kts 81°
2026-04-19 06:15 31.81615 118.52957 12565 ft 387 kts 81°
2026-04-19 06:15 31.81899 118.56089 12062 ft 384 kts 82°
2026-04-19 06:15 31.82179 118.59194 11573 ft 381 kts 82°
2026-04-19 06:15 31.82455 118.62274 11128 ft 376 kts 82°
2026-04-19 06:16 31.82728 118.65327 10887 ft 375 kts 82°
2026-04-19 06:16 31.82991 118.68296 10767 ft 354 kts 82°
2026-04-19 06:16 31.83235 118.71081 10647 ft 332 kts 82°
2026-04-19 06:16 31.83461 118.73660 10538 ft 302 kts 82°
2026-04-19 06:17 31.83675 118.76095 10425 ft 297 kts 82°
2026-04-19 06:17 31.83890 118.78505 10274 ft 297 kts 82°
2026-04-19 06:17 31.84104 118.80913 9954 ft 295 kts 82°
2026-04-19 06:17 31.84316 118.83302 9442 ft 292 kts 82°
2026-04-19 06:18 31.84790 118.85593 8969 ft 287 kts 65°
2026-04-19 06:18 31.85701 118.87673 8542 ft 285 kts 58°
2026-04-19 06:18 31.86708 118.89634 8136 ft 284 kts 56°
2026-04-19 06:18 31.87763 118.91625 7718 ft 282 kts 56°
2026-04-19 06:19 31.88787 118.93550 7324 ft 281 kts 56°
2026-04-19 06:19 31.89821 118.95497 6921 ft 280 kts 56°
2026-04-19 06:19 31.90845 118.97431 6628 ft 276 kts 56°
2026-04-19 06:19 31.91807 118.99256 6514 ft 244 kts 56°
2026-04-19 06:20 31.92643 119.00849 6278 ft 211 kts 56°
2026-04-19 06:20 31.93358 119.02226 6177 ft 189 kts 58°
2026-04-19 06:20 31.93832 119.03641 5979 ft 186 kts 78°
2026-04-19 06:20 31.93786 119.05146 5674 ft 185 kts 106°
2026-04-19 06:21 31.93161 119.06453 5424 ft 185 kts 136°
2026-04-19 06:21 31.92142 119.07362 5162 ft 185 kts 148°
2026-04-19 06:21 31.91055 119.08177 4890 ft 185 kts 149°
2026-04-19 06:21 31.89917 119.08872 4572 ft 183 kts 165°
2026-04-19 06:22 31.88683 119.08997 4273 ft 176 kts 192°
2026-04-19 06:22 31.87495 119.08688 4046 ft 176 kts 195°
2026-04-19 06:22 31.86318 119.08331 3783 ft 173 kts 199°
2026-04-19 06:22 31.85269 119.07689 3490 ft 169 kts 222°
2026-04-19 06:23 31.84575 119.06603 3248 ft 166 kts 244°
2026-04-19 06:23 31.84099 119.05364 3017 ft 166 kts 246°
2026-04-19 06:23 31.83639 119.04122 2760 ft 165 kts 246°
2026-04-19 06:23 31.83124 119.02926 2529 ft 165 kts 239°
2026-04-19 06:24 31.82524 119.01779 2309 ft 165 kts 237°
2026-04-19 06:24 31.81914 119.00641 2072 ft 164 kts 237°
2026-04-19 06:24 31.81310 118.99510 1964 ft 163 kts 238°
2026-04-19 06:24 31.80705 118.98375 1979 ft 164 kts 237°
2026-04-19 06:25 31.80098 118.97237 1897 ft 165 kts 238°
2026-04-19 06:25 31.79492 118.96099 1674 ft 164 kts 238°
2026-04-19 06:25 31.78891 118.94969 1449 ft 163 kts 237°
2026-04-19 06:25 31.78291 118.93844 1246 ft 162 kts 237°
2026-04-19 06:26 31.77694 118.92724 1021 ft 161 kts 237°
2026-04-19 06:26 31.77097 118.91605 813 ft 162 kts 238°
2026-04-19 06:26 31.76502 118.90483 569 ft 161 kts 239°
2026-04-19 06:26 31.75912 118.89364 390 ft 162 kts 239°
2026-04-19 06:27 31.75319 118.88236 207 ft 161 kts 239°
2026-04-19 06:27 31.74730 118.87145 56 ft 143 kts 238°
2026-04-19 06:27 31.74309 118.86360 55 ft 85 kts 238°
2026-04-19 06:27 31.74052 118.85931 57 ft 42 kts 221°
2026-04-19 06:28 31.73886 118.85814 62 ft 18 kts 204°
2026-04-19 06:28 31.73838 118.85812 61 ft 3 kts 158°
2026-04-19 06:28 31.73826 118.85818 58 ft 2 kts 154°
2026-04-19 06:28 31.73806 118.85831 59 ft 4 kts 150°
2026-04-19 06:29 31.73766 118.85858 58 ft 10 kts 148°
2026-04-19 06:29 31.73682 118.85921 56 ft 19 kts 148°
2026-04-19 06:29 31.73549 118.86020 56 ft 26 kts 148°
2026-04-19 06:29 31.73417 118.86116 56 ft 24 kts 149°
2026-04-19 06:30 31.73260 118.86232 60 ft 21 kts 147°
2026-04-19 06:30 31.73184 118.86299 59 ft 14 kts 124°
2026-04-19 06:30 31.73178 118.86345 60 ft 1 kts 65°
2026-04-19 06:30 31.73184 118.86357 58 ft 2 kts 62°
2026-04-19 06:31 31.73182 118.86366 62 ft 1 kts 101°
2026-04-19 06:31 31.73169 118.86394 60 ft 7 kts 126°
2026-04-19 06:31 31.73122 118.86439 58 ft 11 kts 147°
2026-04-19 06:31 31.73072 118.86476 56 ft 8 kts 148°
2026-04-19 06:32 31.73025 118.86517 58 ft 7 kts 136°
2026-04-19 06:32 31.73017 118.86543 61 ft 2 kts 92°
2026-04-19 06:32 31.73026 118.86569 57 ft 4 kts 60°
2026-04-19 06:32 31.73041 118.86602 59 ft 3 kts 72°
2026-04-19 06:33 31.73031 118.86641 56 ft 7 kts 125°
2026-04-19 06:33 31.73027 118.86645 61 ft 1 kts 129°
2026-04-19 06:33 31.73026 118.86648 61 ft 0 kts 129°
2026-04-19 06:33 31.73024 118.86650 56 ft 0 kts 129°